SCP
0 0 0 0 0 0 0 0 0 0 0 0 0 0 0 0 0 0 0 0 0 0 0 0 0 0 0 0 0 0 0 0 0 0 0 0 0 0 0 0 0 0 0
0 0 0 0 0 0 0 0 0 0 0 0 0 0 0 0 0 0 0 0 0 0 0 0 0 0 0 0 0 0 0 0 0 0 0 0 0 0 0 0 0 0 0
0 0 0 0 0 0 0 0 0 0 0 0 0 0 0 0 0 0 0 0 0 0 0 0 0 0 0 0 0 0 0 0 0 0 0 0 0 0 0 0 0 0 0
0 0 0 0 0 0 0 0 0 0 0 0 0 0 0 0 0 0 0 0 0 0 0 0 0 0 0 0 0 0 0 0 0 0 0 0 0 0 0 0 0 0 0
0 0 0 0 0 0 0 0 0 0 0 0 0 0 0 0 0 0 0 0 0 0 0 0 0 0 0 0 0 0 0 0 0 0 0 0 0 0 0 0 0 0 0
0 0 0 0 0 0 0 0 0 0 0 0 0 0 0 0 0 0 0 0 0 0 0 0 0 0 0 0 0 0 0 0 0 0 0 0 0 0 0 0 0 0 0
0 0 0 0 0 0 0 0 0 0 0 0 0 0 0 0 0 0 0 0 0 0 0 0 0 0 0 0 0 0 0 0 0 0 0 0 0 0 0 0 0 0 0
0 0 0 0 0 0 0 0 0 0 0 0 0 0 0 0 0 0 0 0 0 0 0 0 0 0 0 0 0 0 0 0 0 0 0 0 0 0 0 0 0 0 0
0 0 0 0 0 0 0 0 0 0 0 0 0 0 0 0 0 0 0 0 0 0 0 0 0 0 0 0 0 0 0 0 0 0 0 0 0 0 0 0 0 0 0
0 0 0 0 0 0 0 0 0 0 0 0 0 0 0 0 0 0 0 0 0 0 0 0 0 0 0 0 0 0 0 0 0 0 0 0 0 0 0 0 0 0 0
0 0 0 0 0 0 0 0 0 0 0 0 0 0 0 0 0 0 0 0 0 0 0 0 0 0 0 0 0 0 0 0 0 0 0 0 0 0 0 0 0 0 0
0 0 0 0 0 0 0 0 0 0 0 0 0 0 0 0 0 0 0 0 0 0 0 0 0 0 0 0 0 0 0 0 0 0 0 0 0 0 0 0 0 0 0
0 0 0 0 0 0 0 0 0 0 0 0 0 0 0 0 0 0 0 0 0 0 0 0 0 0 0 0 0 0 0 0 0 0 0 0 0 0 0 0 0 0 0
0 0 0 0 0 0 0 0 0 0 0 0 0 0 0 0 0 0 0 0 0 0 0 0 0 0 0 0 0 0 0 0 0 0 0 0 0 0 0 0 0 0 0
0 0 0 0 0 0 0 0 0 0 0 0 0 0 0 0 0 0 0 0 0 0 0 0 0 0 0 0 0 0 0 0 0 0 0 0 0 0 0 0 0 0 0
0 0 0 0 0 0 0 0 0 0 0 0 0 0 0 0 0 0 0 0 0 0 0 0 0 0 0 0 0 0 0 0 0 0 0 0 0 0 0 0 0 0 0
0 0 0 0 0 0 0 0 0 0 0 0 0 0 0 0 0 0 0 0 0 0 0 0 0 0 0 0 0 0 0 0 0 0 0 0 0 0 0 0 0 0 0
0 0 0 0 0 0 0 0 0 0 0 0 0 0 0 0 0 0 0 0 0 0 0 0 0 0 0 0 0 0 0 0 0 0 0 0 0 0 0 0 0 0 0
0 0 0 0 0 0 0 0 0 0 0 0 0 0 0 0 0 0 0 0 0 0 0 0 0 0 0 0 0 0 0 0 0 0 0 0 0 0 0 0 0 0 0
0 0 0 0 0 0 0 0 0 0 0 0 0 0 0 0 0 0 0 0 0 0 0 0 0 0 0 0 0 0 0 0 0 0 0 0 0 0 0 0 0 0 0
0 0 0 0 0 0 0 0 0 0 0 0 0 0 0 0 0 0 0 0 0 0 0 0 0 0 0 0 0 0 0 0 0 0 0 0 0 0 0 0 0 0 0
0 0 0 0 0 0 0 0 0 0 0 0 0 0 0 0 0 0 0 0 0 0 0 0 0 0 0 0 0 0 0 0 0 0 0 0 0 0 0 0 0 0 0
0 0 0 0 0 0 0 0 0 0 0 0 0 0 0 0 0 0 0 0 0 0 0 0 0 0 0 0 0 0 0 0 0 0 0 0 0 0 0 0 0 0 0
0 0 0 0 0 0 0 0 0 0 0 0 0 0 0 0 0 0 0 0 0 0 0 0 0 0 0 0 0 0 0 0 0 0 0 0 0 0 0 0 0 0 0
0 0 0 0 0 0 0 0 0 0 0 0 0 0 0 0 0 0 0 0 0 0 0 0 0 0 0 0 0 0 0 0 0 0 0 0 0 0 0 0 0 0 0
0 0 0 0 0 0 0 0 0 0 0 0 0 0 0 0 0 0 0 0 0 0 0 0 0 0 0 0 0 0 0 0 0 0 0 0 0 0 0 0 0 0 0
Wind_Speed
4 4 5 5 6 7 7 6 7 7 6 4 4 4 3 3 3 3 4 4 4 4 3 2 3 2 2 2 2 2 1 1 1 1 1 2 1 1 1 0 1 1 1
5 5 5 5 5 6 6 6 6 6 5 4 3 3 3 2 2 3 3 4 4 4 3 3 2 2 2 2 2 2 1 1 1 0 0 1 1 2 2 1 1 1 1
4 4 5 4 4 5 5 6 6 6 6 6 3 3 3 2 3 3 3 4 4 4 4 3 2 2 2 2 2 1 2 2 2 1 1 1 2 1 1 2 2 2 1
3 4 5 5 5 4 4 5 6 6 6 6 4 4 3 3 4 3 3 4 3 4 4 3 3 2 2 2 3 2 2 2 2 2 2 2 1 1 1 1 1 2 1
3 3 4 4 4 4 4 4 5 6 6 6 5 4 4 3 3 4 4 4 3 3 4 3 3 3 2 3 3 3 2 2 2 2 2 2 2 2 1 2 1 1 1
2 2 3 3 4 4 4 4 5 5 6 6 6 5 5 5 5 5 5 4 3 3 4 4 3 3 3 3 3 3 3 3 3 2 2 2 2 2 2 2 2 2 2
2 2 3 4 4 5 6 5 5 6 6 6 6 5 5 5 5 5 5 4 4 4 4 4 3 3 3 3 3 3 4 3 3 3 3 3 3 2 2 2 2 2 2
2 2 3 3 4 5 5 6 6 6 6 6 6 5 5 3 3 4 4 4 4 4 5 5 4 4 4 4 3 3 4 4 4 4 3 3 3 3 2 2 2 2 2
2 3 3 3 3 4 5 5 6 6 6 6 6 6 5 5 5 5 4 4 4 5 5 5 5 5 4 4 4 4 4 4 4 4 4 4 3 3 3 3 3 3 3
3 3 3 3 3 3 4 5 5 5 5 5 5 6 5 5 6 5 5 5 5 5 6 6 6 5 5 5 4 4 4 5 5 4 5 5 3 3 3 3 3 3 3
3 3 3 3 3 3 4 4 5 6 6 6 6 6 6 6 6 5 5 5 5 6 6 6 6 6 6 5 5 5 5 6 6 5 5 6 5 4 3 3 3 3 3
3 3 3 3 3 4 4 4 5 5 6 6 6 7 6 6 6 6 6 6 6 6 6 6 6 7 6 6 6 6 6 6 6 6 6 6 5 5 4 4 4 3 3
3 3 3 3 4 4 4 4 4 5 6 6 6 7 6 6 6 7 7 7 7 7 7 6 7 7 7 6 7 7 7 7 7 7 7 7 6 6 5 4 4 3 3
4 4 4 4 4 4 4 5 5 5 6 6 6 7 6 6 7 7 7 7 7 7 7 7 7 7 7 7 7 7 6 6 7 7 7 7 7 7 6 5 5 4 4
4 5 5 4 4 5 5 5 5 5 6 6 7 6 7 6 7 7 7 7 7 8 8 7 7 7 7 7 7 6 6 6 6 6 6 6 7 8 7 5 5 5 4
5 5 5 5 6 6 6 5 5 5 5 6 7 7 7 7 7 7 7 7 7 7 7 7 7 7 7 10 11 8 6 6 6 6 6 6 6 7 9 9 8 7 7
6 6 6 6 5 5 6 6 5 6 6 6 6 7 7 7 7 8 8 8 8 7 7 7 7 7 8 11 10 9 6 5 5 6 5 5 5 6 5 6 7 7 8
6 6 6 6 6 5 5 5 5 5 6 6 6 7 7 7 7 7 7 7 7 7 7 7 7 7 8 10 9 9 6 4 5 5 6 6 5 5 5 4 4 4 5
5 5 5 5 6 5 5 5 6 5 6 6 7 7 7 7 7 8 7 7 7 7 7 7 7 7 7 9 9 8 4 4 4 5 5 5 5 6 6 4 4 3 3
5 5 5 5 6 6 4 5 6 6 6 7 7 7 7 7 7 7 7 7 6 7 7 7 6 6 6 9 9 8 3 3 3 3 4 5 5 5 5 5 5 5 4
5 5 6 5 5 5 5 5 6 6 6 7 7 7 7 7 7 6 6 6 6 7 6 7 6 6 7 8 9 9 4 3 2 2 2 2 4 4 5 4 4 6 5
6 6 5 6 6 5 5 6 7 6 6 6 7 7 7 6 6 6 6 5 5 6 6 6 6 5 5 7 8 9 7 5 3 2 2 1 2 3 3 3 3 5 4
6 5 5 6 6 5 5 7 7 6 6 7 7 7 7 6 6 5 5 5 4 4 5 5 5 5 5 5 9 9 8 7 4 1 2 3 3 3 1 1 3 3 2
6 5 6 7 7 6 6 6 7 6 6 7 7 7 6 6 5 5 4 4 4 4 5 5 5 5 5 4 4 4 4 5 3 2 2 3 3 3 3 2 2 1 1
6 6 6 6 7 7 7 7 6 6 6 6 6 6 6 6 5 5 4 5 4 5 5 4 5 5 5 6 9 7 4 3 3 2 1 1 1 1 1 1 1 1 0
5 6 6 7 7 7 7 7 6 6 6 7 7 5 5 5 5 5 5 8 8 10 10 9 8 6 8 10 10 10 9 8 6 3 1 1 1 1 1 1 1 1 1
Wind_Direction
46 38 34 28 24 18 14 11 9 5 5 6 5 354 350 342 346 352 357 357 347 343 346 344 341 341 337 321 322 332 341 319 348 4 335 308 280 255 254 185 141 141 147
23 27 29 26 24 16 8 7 7 2 3 354 349 335 329 325 338 346 344 346 342 337 337 341 335 332 325 323 327 333 317 287 298 238 257 284 283 265 233 209 198 190 171
23 17 17 16 17 13 7 359 358 359 356 350 350 349 342 345 350 346 339 337 335 333 330 328 329 326 324 302 297 296 288 272 273 267 208 201 226 296 258 221 209 192 184
26 17 13 7 8 5 2 358 357 357 357 353 352 351 348 339 329 325 320 321 328 329 327 327 327 317 309 301 289 284 276 270 267 281 276 268 218 200 270 277 232 212 209
26 14 9 2 3 1 358 354 355 356 355 353 349 346 340 328 322 322 320 321 319 324 325 323 322 320 310 301 290 278 267 261 256 258 280 286 283 246 210 247 264 264 248
20 5 2 4 3 1 356 355 355 351 350 349 347 344 339 335 332 330 326 322 316 314 317 313 312 307 302 296 293 276 263 257 257 259 257 254 240 241 229 237 248 248 246
9 358 1 1 359 358 356 352 351 349 347 345 345 339 336 330 324 322 318 318 314 310 308 310 300 298 292 290 288 283 271 252 243 242 247 256 257 248 247 235 250 257 257
4 355 355 358 355 352 352 352 349 344 342 342 338 334 331 323 314 315 312 308 303 300 301 299 291 286 284 284 280 279 272 262 245 245 242 249 257 252 231 227 220 249 262
356 347 351 356 353 348 345 346 343 336 337 338 333 327 329 326 318 312 310 306 306 303 302 298 292 282 277 273 270 270 270 263 250 239 239 244 247 249 236 229 209 209 231
339 345 348 347 346 339 337 340 336 333 329 330 327 325 324 320 316 312 311 309 307 305 301 296 291 286 275 268 264 267 266 261 250 241 237 238 239 240 233 228 238 227 222
337 339 337 335 337 339 339 335 333 333 329 326 323 320 317 317 316 310 310 310 308 302 296 296 289 284 278 270 261 258 260 258 255 247 238 237 233 235 229 227 233 234 219
336 339 334 333 338 337 333 330 328 328 325 322 318 314 315 319 317 314 312 310 306 302 296 294 291 285 280 273 264 259 255 251 249 243 236 236 234 234 227 221 226 228 219
340 342 340 336 335 333 328 323 321 322 321 321 316 316 320 321 318 314 313 311 307 303 298 292 287 283 277 272 266 259 255 248 245 240 236 234 230 233 232 223 226 225 224
331 338 336 334 332 328 322 319 318 320 321 320 319 317 317 316 314 313 312 310 307 303 298 292 284 282 277 272 267 264 258 252 248 242 237 234 230 229 224 221 222 216 211
335 338 336 332 327 324 320 318 317 320 320 318 316 315 315 316 317 315 313 313 310 306 300 294 286 282 277 269 266 261 260 251 248 248 242 238 237 237 229 226 214 207 206
336 337 333 330 329 326 322 318 316 316 316 313 313 315 317 318 320 318 317 316 311 307 302 297 292 284 280 280 275 271 260 249 242 247 244 239 235 237 238 240 233 221 211
335 332 327 322 322 323 322 312 308 311 311 309 313 316 316 318 320 321 321 318 315 313 309 306 303 297 291 286 278 272 269 249 241 243 242 241 236 234 226 232 235 236 236
331 328 327 327 323 320 321 318 312 310 308 310 315 317 317 317 318 318 318 319 318 315 311 310 308 306 305 302 292 284 274 258 246 243 240 236 229 222 220 216 223 236 243
330 328 326 321 320 321 322 320 315 312 312 315 316 318 317 315 314 314 316 317 317 316 314 312 313 311 311 308 296 289 275 266 258 248 244 236 225 221 221 211 214 231 246
335 333 329 328 327 326 330 323 316 317 316 316 316 316 314 312 311 311 312 314 314 313 315 315 314 312 311 313 307 299 278 271 267 262 251 241 236 226 225 210 206 218 225
330 331 328 327 326 329 331 319 316 315 315 317 314 314 313 312 307 308 310 314 316 316 317 315 314 314 316 319 322 317 302 275 275 278 272 249 243 244 246 247 221 220 223
331 333 330 327 329 334 335 325 319 317 320 319 317 314 314 313 315 313 315 317 317 317 320 320 319 321 321 326 328 327 320 308 290 283 286 270 267 276 277 266 235 233 232
330 332 328 325 329 335 336 324 319 323 324 321 319 316 315 315 315 314 316 317 318 319 320 321 321 324 327 330 331 333 335 331 318 316 322 324 323 321 309 272 272 258 218
330 333 332 330 331 335 334 325 323 326 323 320 319 321 323 320 320 319 320 319 318 316 317 318 319 320 324 328 329 331 333 333 324 324 343 344 346 337 335 328 317 295 209
329 329 329 327 326 330 329 327 328 329 323 318 318 323 324 322 322 321 320 319 311 312 313 311 311 314 319 327 330 328 326 323 310 317 348 16 11 1 4 9 8 16 20
324 325 326 325 324 326 326 328 331 329 325 323 324 323 321 321 323 322 324 331 328 328 329 330 327 322 325 330 334 336 339 342 340 344 15 11 12 6 3 4 7 16 13